Location: Newark
(7.1028°S, 35.3258°W)
Time: 13:26:46
(UTC+00:00)

N. Korean satellite - Visible Passes

Search period start: 19 January 2020 00:00
Search period end: 29 January 2020 00:00
Orbit: 454 x 508 km, 97.2° (Epoch: 18 January)

Date Brightness Start Highest point End Pass type
(mag) Time Alt. Az. Time Alt. Az. Time Alt. Az.
19 Jan 9.8 07:00:31 10° ENE 07:02:49 16° ESE 07:05:07 10° SE visible
21 Jan 6.7 07:41:23 10° NNE 07:45:02 82° ESE 07:48:45 10° S visible
22 Jan 8.8 07:16:25 10° NE 07:19:38 29° ESE 07:22:53 10° SSE visible
23 Jan 10.1 06:52:49 10° E 06:54:16 12° ESE 06:55:44 10° SE visible
25 Jan 7.4 07:32:51 10° NNE 07:36:28 58° ESE 07:40:08 10° S visible
26 Jan 9.4 07:08:11 10° NE 07:11:04 22° ESE 07:13:59 10° SSE visible
28 Jan 6.6 07:49:38 10° N 07:53:18 70° W 07:57:01 10° SSW visible
